Big Lake, AK

3:55 AM AKST on February 09, 2016 (GMT -0900)
Wasilla

Weather History for PAWS - March, 2013

Change the Weather History Date:

Wednesday, March 27, 2013

  Actual Average Record
Temperature  
Mean Temperature 4 °F -  
Max Temperature 21 °F 41 °F 52 °F (1974)
Min Temperature -13 °F 24 °F -13 °F (2013)
Degree Days  
Heating Degree Days 61    
Moisture  
Dew Point -3 °F    
Average Humidity 68    
Maximum Humidity 92    
Minimum Humidity 39    
Precipitation  
Precipitation 0.00 in - - ()
Sea Level Pressure  
Sea Level Pressure 30.20 in    
Wind  
Wind Speed 2 mph (WSW)    
Max Wind Speed 6 mph    
Max Gust Speed -    
Visibility 10 miles    
Events      
Averages and records for this station are not official NWS values.
T = Trace of Precipitation, MM = Missing Value Source: NWS Daily Summary

Daily Weather History Graph

Daily Weather History Graph

Search for Another Location

Airport or City:

Trip Planner

Search our weather history database for the weather conditions in past years. The results will help you decide how hot, cold, wet, or windy it might be!

Date:

Astronomy

Mar. 27, 2013 Rise Set
Actual Time 7:35 AM AKDT 8:32 PM AKDT
Civil Twilight 6:50 AM AKDT 9:17 PM AKDT
Nautical Twilight 5:56 AM AKDT 10:12 PM AKDT
Astronomical Twilight 4:52 AM AKDT 11:17 PM AKDT
Moon 9:56 PM AKDT (3/27) 7:16 AM AKDT (3/27)
Length of Visible Light 14h 26m
Length of Day
12h 57m
Full, 100% of the Moon is Illuminated
Mar 27
Full
Apr 2
Last Quarter
Apr 10
New
Apr 18
First Quarter
Apr 25
Full

Hourly Weather History & Observations

Time (AKDT) Temp. Windchill Dew Point Humidity Pressure Visibility Wind Dir Wind Speed Gust Speed Precip Events Conditions
12:16 AM 3.2 °F -4.2 °F -2.2 °F 78% 30.16 in 10.0 mi ENE 3.5 mph - N/A   Clear
12:36 AM 3.2 °F - -2.2 °F 78% 30.17 in 10.0 mi Calm Calm - N/A   Clear
12:56 AM 3.2 °F -4.2 °F -0.4 °F 85% 30.17 in 10.0 mi East 3.5 mph - N/A   Clear
1:16 AM 3.2 °F - -0.4 °F 85% 30.17 in 10.0 mi Calm Calm - N/A   Clear
1:36 AM 1.4 °F -6.2 °F -2.2 °F 85% 30.17 in 10.0 mi East 3.5 mph - N/A   Clear
1:56 AM -0.4 °F - -5.8 °F 78% 30.17 in 10.0 mi Calm Calm - N/A   Clear
2:16 AM -0.4 °F - -2.2 °F 92% 30.17 in 10.0 mi Calm Calm - N/A   Clear
2:36 AM 1.4 °F - -5.8 °F 72% 30.17 in 10.0 mi Calm Calm - N/A   Clear
2:56 AM 1.4 °F - -4.0 °F 78% 30.17 in 10.0 mi Calm Calm - N/A   Clear
3:16 AM -0.4 °F - -5.8 °F 78% 30.17 in 10.0 mi Calm Calm - N/A   Clear
3:36 AM 1.4 °F - -5.8 °F 72% 30.18 in 10.0 mi Calm Calm - N/A   Clear
3:56 AM -0.4 °F - -5.8 °F 78% 30.18 in 10.0 mi Calm Calm - N/A   Clear
4:16 AM -2.2 °F - -7.6 °F 78% 30.18 in 10.0 mi Calm Calm - N/A   Clear
4:36 AM -7.6 °F - -14.8 °F 71% 30.19 in 10.0 mi Calm Calm - N/A   Clear
4:56 AM -9.4 °F -18.6 °F -11.2 °F 92% 30.19 in 10.0 mi WSW 3.5 mph - N/A   Clear
5:16 AM -9.4 °F -18.6 °F -13.0 °F 84% 30.19 in 10.0 mi West 3.5 mph - N/A   Clear
5:36 AM -9.4 °F -18.6 °F -13.0 °F 84% 30.19 in 10.0 mi West 3.5 mph - N/A   Clear
5:56 AM -9.4 °F -18.6 °F -14.8 °F 77% 30.20 in 10.0 mi West 3.5 mph - N/A   Clear
6:16 AM -11.2 °F - -14.8 °F 84% 30.20 in 10.0 mi Calm Calm - N/A   Clear
6:36 AM -11.2 °F - -13.0 °F 92% 30.20 in 10.0 mi Calm Calm - N/A   Clear
6:56 AM -11.2 °F - -16.6 °F 77% 30.20 in 10.0 mi Calm Calm - N/A   Clear
7:16 AM -11.2 °F -20.6 °F -18.4 °F 70% 30.20 in 10.0 mi West 3.5 mph - N/A   Clear
7:36 AM -11.2 °F -23.0 °F -16.6 °F 77% 30.20 in 10.0 mi West 4.6 mph - N/A   Clear
7:56 AM -13.0 °F - -16.6 °F 84% 30.20 in 10.0 mi Calm Calm - N/A   Clear
8:16 AM -13.0 °F -27.0 °F -16.6 °F 84% 30.21 in 10.0 mi WSW 5.8 mph - N/A   Clear
8:36 AM -11.2 °F -20.6 °F -14.8 °F 84% 30.22 in 10.0 mi WSW 3.5 mph - N/A   Clear
8:56 AM -11.2 °F - -14.8 °F 84% 30.22 in 10.0 mi Calm Calm - N/A   Clear
9:16 AM -9.4 °F - -13.0 °F 84% 30.22 in 10.0 mi Calm Calm - N/A   Clear
9:36 AM -7.6 °F - -9.4 °F 92% 30.22 in 10.0 mi Calm Calm - N/A   Clear
9:56 AM -5.8 °F - -9.4 °F 84% 30.22 in 10.0 mi Calm Calm - N/A   Clear
10:16 AM -0.4 °F - -5.8 °F 78% 30.22 in 10.0 mi Calm Calm - N/A   Clear
10:36 AM 1.4 °F - -5.8 °F 72% 30.22 in 10.0 mi Calm Calm - N/A   Clear
10:56 AM 6.8 °F -2.0 °F -0.4 °F 72% 30.22 in 10.0 mi West 4.6 mph - N/A   Clear
11:16 AM 8.6 °F 0.1 °F -2.2 °F 62% 30.23 in 10.0 mi West 4.6 mph - N/A   Clear
11:36 AM 10.4 °F 2.2 °F -2.2 °F 57% 30.23 in 10.0 mi West 4.6 mph - N/A   Clear
11:56 AM 10.4 °F 2.2 °F -0.4 °F 62% 30.23 in 10.0 mi West 4.6 mph - N/A   Clear
12:16 PM 10.4 °F 4.0 °F -2.2 °F 57% 30.24 in 10.0 mi West 3.5 mph - N/A   Clear
12:36 PM 12.2 °F 6.1 °F -0.4 °F 57% 30.24 in 10.0 mi West 3.5 mph - N/A   Clear
12:56 PM 12.2 °F - -2.2 °F 53% 30.24 in 10.0 mi Calm Calm - N/A   Clear
1:16 PM 14.0 °F - -0.4 °F 53% 30.24 in 10.0 mi Calm Calm - N/A   Clear
1:36 PM 15.8 °F - 1.4 °F 53% 30.23 in 10.0 mi Calm Calm - N/A   Clear
1:56 PM 17.6 °F - 1.4 °F 49% 30.23 in 10.0 mi Calm Calm - N/A   Clear
2:16 PM 17.6 °F 12.3 °F 3.2 °F 53% 30.23 in 10.0 mi WNW 3.5 mph - N/A   Clear
2:36 PM 19.4 °F 14.3 °F 1.4 °F 46% 30.23 in 10.0 mi WNW 3.5 mph - N/A   Clear
2:56 PM 19.4 °F - -2.2 °F 39% 30.23 in 10.0 mi Calm Calm - N/A   Clear
3:16 PM 21.2 °F 14.9 °F 3.2 °F 46% 30.22 in 10.0 mi WNW 4.6 mph - N/A   Clear
3:36 PM 21.2 °F - 1.4 °F 42% 30.22 in 10.0 mi Calm Calm - N/A   Clear
3:56 PM 21.2 °F - 3.2 °F 46% 30.22 in 10.0 mi Calm Calm - N/A   Clear
4:16 PM 21.2 °F - 1.4 °F 42% 30.22 in 10.0 mi Calm Calm - N/A   Clear
4:36 PM 19.4 °F 12.8 °F 3.2 °F 49% 30.22 in 10.0 mi South 4.6 mph - N/A   Clear
4:56 PM 19.4 °F 14.3 °F 3.2 °F 49% 30.22 in 10.0 mi SSE 3.5 mph - N/A   Clear
5:16 PM 19.4 °F 11.5 °F 3.2 °F 49% 30.22 in 10.0 mi South 5.8 mph - N/A   Clear
5:36 PM 19.4 °F 12.8 °F 3.2 °F 49% 30.21 in 10.0 mi SSE 4.6 mph - N/A   Clear
5:56 PM 19.4 °F 14.3 °F 6.8 °F 58% 30.21 in 10.0 mi SE 3.5 mph - N/A   Clear
6:16 PM 21.2 °F 16.4 °F 6.8 °F 54% 30.21 in 10.0 mi SW 3.5 mph - N/A   Clear
6:36 PM 19.4 °F 12.8 °F 6.8 °F 58% 30.20 in 10.0 mi West 4.6 mph - N/A   Clear
6:56 PM 19.4 °F 14.3 °F 5.0 °F 54% 30.20 in 10.0 mi West 3.5 mph - N/A   Clear
7:16 PM 19.4 °F - 5.0 °F 54% 30.20 in 10.0 mi Calm Calm - N/A   Clear
7:36 PM 17.6 °F - 5.0 °F 58% 30.20 in 10.0 mi Calm Calm - N/A   Clear
7:56 PM 17.6 °F - 5.0 °F 58% 30.20 in 10.0 mi Calm Calm - N/A   Partly Cloudy
8:16 PM 17.6 °F - 5.0 °F 58% 30.20 in 10.0 mi Calm Calm - N/A   Partly Cloudy
8:36 PM 15.8 °F - 6.8 °F 68% 30.20 in 10.0 mi Calm Calm - N/A   Partly Cloudy
8:56 PM 15.8 °F - 5.0 °F 62% 30.20 in 10.0 mi Calm Calm - N/A   Partly Cloudy
9:16 PM 14.0 °F - 3.2 °F 62% 30.20 in 10.0 mi Calm Calm - N/A   Mostly Cloudy
9:36 PM 12.2 °F - 5.0 °F 73% 30.20 in 10.0 mi Calm Calm - N/A   Overcast
9:56 PM 12.2 °F - 5.0 °F 73% 30.20 in 10.0 mi Calm Calm - N/A   Overcast
10:16 PM 12.2 °F 2.9 °F 3.2 °F 67% 30.19 in 10.0 mi NNE 5.8 mph - N/A   Overcast
10:36 PM 12.2 °F - 5.0 °F 73% 30.19 in 10.0 mi Calm Calm - N/A   Overcast
10:56 PM 12.2 °F 6.1 °F 6.8 °F 79% 30.19 in 10.0 mi SW 3.5 mph - N/A   Overcast
11:16 PM 12.2 °F 6.1 °F 3.2 °F 67% 30.19 in 10.0 mi WSW 3.5 mph - N/A   Overcast
11:36 PM 12.2 °F - 3.2 °F 67% 30.19 in 10.0 mi Calm Calm - N/A   Overcast
11:56 PM 12.2 °F - 5.0 °F 73% 30.18 in 10.0 mi Calm Calm - N/A   Overcast